TTW528 LLBG-LLER

Flight info

Callsign TTW528
Flight time 0h 38m
Altitude 22000
Route TOMAL J10 NURIT
Aircraft A320/M-SDE3FGHIRWY/LB1

Departure

Time 2026-04-22 10:32
Airport Ben Gurion International Airport (LLBG)

Arrival

Time 2026-04-22 11:10
Airport Ramon International Airport (LLER)
Time Latitude Longitude Altitude Speed Heading
2026-04-22 09:51 32.00172 34.88126 134 ft 0 kts 315°
2026-04-22 10:18 32.00168 34.88130 134 ft 4 kts 315°
2026-04-22 10:19 32.00149 34.88153 135 ft 4 kts 315°
2026-04-22 10:19 32.00131 34.88174 135 ft 3 kts 324°
2026-04-22 10:19 32.00120 34.88182 135 ft 2 kts
2026-04-22 10:19 32.00109 34.88179 135 ft 2 kts 31°
2026-04-22 10:20 32.00106 34.88177 135 ft 0 kts 30°
2026-04-22 10:23 32.00110 34.88179 135 ft 2 kts 30°
2026-04-22 10:24 32.00149 34.88207 134 ft 10 kts 30°
2026-04-22 10:24 32.00218 34.88256 134 ft 11 kts 33°
2026-04-22 10:24 32.00287 34.88270 133 ft 12 kts 326°
2026-04-22 10:24 32.00335 34.88177 132 ft 15 kts 302°
2026-04-22 10:25 32.00386 34.88080 126 ft 16 kts 301°
2026-04-22 10:25 32.00442 34.87969 125 ft 15 kts 301°
2026-04-22 10:25 32.00520 34.87846 125 ft 5 kts 11°
2026-04-22 10:25 32.00534 34.87867 122 ft 6 kts 49°
2026-04-22 10:26 32.00572 34.87904 124 ft 9 kts 32°
2026-04-22 10:26 32.00631 34.87946 125 ft 10 kts 31°
2026-04-22 10:26 32.00643 34.87955 124 ft 0 kts 31°
2026-04-22 10:27 32.00674 34.87977 123 ft 13 kts 31°
2026-04-22 10:27 32.00761 34.88041 124 ft 16 kts 32°
2026-04-22 10:27 32.00865 34.88115 123 ft 19 kts 31°
2026-04-22 10:28 32.00987 34.88202 126 ft 22 kts 31°
2026-04-22 10:28 32.01123 34.88302 123 ft 25 kts 32°
2026-04-22 10:28 32.01252 34.88401 125 ft 19 kts 36°
2026-04-22 10:28 32.01358 34.88515 126 ft 22 kts 49°
2026-04-22 10:29 32.01432 34.88636 127 ft 17 kts 60°
2026-04-22 10:29 32.01481 34.88771 126 ft 16 kts 72°
2026-04-22 10:29 32.01505 34.88894 128 ft 16 kts 79°
2026-04-22 10:29 32.01526 34.89029 132 ft 18 kts 80°
2026-04-22 10:30 32.01558 34.89149 133 ft 15 kts 37°
2026-04-22 10:30 32.01647 34.89148 131 ft 8 kts 346°
2026-04-22 10:30 32.01717 34.89129 129 ft 10 kts 347°
2026-04-22 10:30 32.01744 34.89089 129 ft 5 kts 258°
2026-04-22 10:31 32.01735 34.89030 131 ft 16 kts 260°
2026-04-22 10:31 32.01673 34.88625 126 ft 87 kts 259°
2026-04-22 10:31 32.01530 34.87689 118 ft 142 kts 259°
2026-04-22 10:31 32.01340 34.86450 522 ft 160 kts 264°
2026-04-22 10:32 32.01111 34.85175 1321 ft 159 kts 250°
2026-04-22 10:32 32.00391 34.84177 2010 ft 166 kts 211°
2026-04-22 10:32 31.99263 34.83898 2724 ft 170 kts 171°
2026-04-22 10:32 31.98207 34.84492 3373 ft 173 kts 134°
2026-04-22 10:33 31.97603 34.85789 3767 ft 193 kts 109°
2026-04-22 10:33 31.97151 34.87336 4337 ft 203 kts 109°
2026-04-22 10:33 31.96682 34.88917 5152 ft 205 kts 109°
2026-04-22 10:33 31.96207 34.90507 5794 ft 213 kts 109°
2026-04-22 10:34 31.95711 34.92164 6026 ft 215 kts 109°
2026-04-22 10:34 31.95177 34.93857 6630 ft 230 kts 112°
2026-04-22 10:34 31.94511 34.95681 7072 ft 255 kts 114°
2026-04-22 10:34 31.93744 34.97682 7555 ft 279 kts 115°
2026-04-22 10:35 31.92918 34.99813 8317 ft 291 kts 115°
2026-04-22 10:35 31.92062 35.02014 8814 ft 299 kts 115°
2026-04-22 10:35 31.91197 35.04251 8953 ft 299 kts 115°
2026-04-22 10:35 31.90338 35.06481 8990 ft 299 kts 115°
2026-04-22 10:36 31.89481 35.08711 8977 ft 299 kts 115°
2026-04-22 10:36 31.88634 35.10915 8983 ft 299 kts 115°
2026-04-22 10:36 31.87779 35.13147 8977 ft 298 kts 115°
2026-04-22 10:36 31.86929 35.15368 8988 ft 299 kts 115°
2026-04-22 10:37 31.86074 35.17599 8995 ft 298 kts 115°
2026-04-22 10:37 31.84364 35.22050 8992 ft 297 kts 115°
2026-04-22 10:37 31.83508 35.24265 8985 ft 297 kts 115°
2026-04-22 10:38 31.82650 35.26481 8993 ft 297 kts 115°
2026-04-22 10:38 31.81796 35.28688 8994 ft 296 kts 115°
2026-04-22 10:38 31.80951 35.30867 8996 ft 296 kts 115°
2026-04-22 10:38 31.80093 35.33074 9005 ft 297 kts 115°
2026-04-22 10:39 31.79234 35.35283 8990 ft 296 kts 115°
2026-04-22 10:39 31.78378 35.37489 9004 ft 297 kts 115°
2026-04-22 10:39 31.77438 35.39646 9007 ft 296 kts 123°
2026-04-22 10:39 31.76207 35.41578 9005 ft 295 kts 134°
2026-04-22 10:40 31.74714 35.43222 8992 ft 294 kts 143°
2026-04-22 10:40 31.73012 35.44542 9006 ft 293 kts 153°
2026-04-22 10:40 31.71168 35.45532 9002 ft 292 kts 161°
2026-04-22 10:40 31.69225 35.46233 9001 ft 290 kts 170°
2026-04-22 10:41 31.67243 35.46495 9519 ft 292 kts 181°
2026-04-22 10:41 31.65208 35.46342 10286 ft 301 kts 191°
2026-04-22 10:41 31.63073 35.45863 10600 ft 324 kts 193°
2026-04-22 10:41 31.60780 35.45314 10867 ft 347 kts 193°
2026-04-22 10:42 31.58370 35.44753 11411 ft 357 kts 193°
2026-04-22 10:42 31.55904 35.44201 12126 ft 363 kts 193°
2026-04-22 10:42 31.53398 35.43649 12870 ft 367 kts 193°
2026-04-22 10:42 31.50879 35.43095 13608 ft 372 kts 193°
2026-04-22 10:43 31.48313 35.42531 14280 ft 376 kts 193°
2026-04-22 10:43 31.45761 35.41966 14918 ft 379 kts 193°
2026-04-22 10:43 31.43149 35.41386 15561 ft 383 kts 194°
2026-04-22 10:43 31.40527 35.40803 16205 ft 385 kts 194°
2026-04-22 10:44 31.37878 35.40212 16789 ft 389 kts 194°
2026-04-22 10:44 31.35200 35.39616 16979 ft 390 kts 194°
2026-04-22 10:44 31.32467 35.39082 17028 ft 409 kts 189°
2026-04-22 10:44 31.29560 35.38765 17025 ft 428 kts 188°
2026-04-22 10:45 31.26561 35.38446 17023 ft 435 kts 188°
2026-04-22 10:45 31.23537 35.38129 17022 ft 437 kts 188°
2026-04-22 10:45 31.20549 35.37823 17026 ft 437 kts 188°
2026-04-22 10:45 31.17514 35.37513 17020 ft 438 kts 188°
2026-04-22 10:46 31.14472 35.37203 17018 ft 438 kts 188°
2026-04-22 10:46 31.11437 35.36892 17016 ft 437 kts 188°
2026-04-22 10:46 31.08403 35.36581 17014 ft 437 kts 188°
2026-04-22 10:46 31.05366 35.36269 17014 ft 437 kts 188°
2026-04-22 10:47 31.02327 35.35958 17017 ft 438 kts 188°
2026-04-22 10:47 30.99292 35.35648 17017 ft 437 kts 188°
2026-04-22 10:47 30.96297 35.35308 17008 ft 436 kts 192°
2026-04-22 10:47 30.93354 35.34533 17007 ft 432 kts 201°
2026-04-22 10:48 30.90558 35.33256 17006 ft 429 kts 206°
2026-04-22 10:48 30.87808 35.31885 17000 ft 429 kts 206°
2026-04-22 10:48 30.85057 35.30522 16999 ft 429 kts 206°
2026-04-22 10:48 30.82306 35.29171 16995 ft 429 kts 206°
2026-04-22 10:49 30.79547 35.27821 17000 ft 429 kts 206°
2026-04-22 10:49 30.76826 35.26486 16994 ft 429 kts 206°
2026-04-22 10:49 30.74071 35.25128 16993 ft 429 kts 206°
2026-04-22 10:49 30.71320 35.23770 16991 ft 429 kts 206°
2026-04-22 10:50 30.68564 35.22416 16991 ft 429 kts 206°
2026-04-22 10:50 30.65813 35.21067 16988 ft 429 kts 206°
2026-04-22 10:50 30.63063 35.19719 16986 ft 429 kts 206°
2026-04-22 10:50 30.60306 35.18366 16986 ft 429 kts 206°
2026-04-22 10:51 30.57556 35.17021 16989 ft 429 kts 205°
2026-04-22 10:51 30.54700 35.15981 16985 ft 434 kts 196°
2026-04-22 10:51 30.51710 35.15376 16983 ft 435 kts 193°
2026-04-22 10:51 30.48760 35.14819 16981 ft 435 kts 193°
2026-04-22 10:52 30.45771 35.14250 16978 ft 435 kts 193°
2026-04-22 10:52 30.42800 35.13679 16836 ft 424 kts 193°
2026-04-22 10:52 30.39929 35.13128 16581 ft 412 kts 193°
2026-04-22 10:52 30.37113 35.12585 16323 ft 409 kts 193°
2026-04-22 10:53 30.34303 35.12043 16071 ft 407 kts 193°
2026-04-22 10:53 30.31516 35.11505 15822 ft 405 kts 193°
2026-04-22 10:53 30.28738 35.10972 15574 ft 404 kts 193°
2026-04-22 10:53 30.26008 35.10455 15183 ft 400 kts 192°
2026-04-22 10:54 30.23273 35.09946 14537 ft 396 kts 192°
2026-04-22 10:54 30.20571 35.09435 13882 ft 392 kts 192°
2026-04-22 10:54 30.17889 35.08896 13171 ft 389 kts 192°
2026-04-22 10:54 30.15240 35.08341 12487 ft 384 kts 193°
2026-04-22 10:55 30.12627 35.07785 11925 ft 377 kts 192°
2026-04-22 10:55 30.10102 35.07251 11796 ft 360 kts 192°
2026-04-22 10:55 30.07693 35.06747 11662 ft 343 kts 193°
2026-04-22 10:55 30.05384 35.06272 11536 ft 330 kts 192°
2026-04-22 10:56 30.03156 35.05831 11406 ft 318 kts 192°
2026-04-22 10:56 30.01009 35.05418 11276 ft 308 kts 192°
2026-04-22 10:56 29.98960 35.05027 11147 ft 297 kts 192°
2026-04-22 10:56 29.96950 35.04643 11021 ft 288 kts 192°
2026-04-22 10:57 29.94996 35.04265 10854 ft 281 kts 192°
2026-04-22 10:57 29.93087 35.03893 10781 ft 277 kts 192°
2026-04-22 10:57 29.91185 35.03519 10666 ft 276 kts 192°
2026-04-22 10:57 29.89313 35.03153 10535 ft 276 kts 192°
2026-04-22 10:58 29.87393 35.02779 10065 ft 284 kts 192°
2026-04-22 10:58 29.85463 35.02407 9649 ft 277 kts 192°
2026-04-22 10:58 29.83564 35.02042 9091 ft 275 kts 191°
2026-04-22 10:58 29.81666 35.01801 8550 ft 274 kts 181°
2026-04-22 10:59 29.79793 35.01873 8033 ft 272 kts 179°
2026-04-22 10:59 29.77909 35.01951 7446 ft 272 kts 179°
2026-04-22 10:59 29.76005 35.01923 6778 ft 274 kts 189°
2026-04-22 10:59 29.74221 35.01391 6624 ft 255 kts 202°
2026-04-22 11:00 29.72674 35.00557 6528 ft 235 kts 207°
2026-04-22 11:00 29.71253 34.99765 6428 ft 221 kts 206°
2026-04-22 11:00 29.69875 34.99001 6338 ft 220 kts 206°
2026-04-22 11:00 29.68504 34.98239 6233 ft 218 kts 207°
2026-04-22 11:01 29.67129 34.97475 6002 ft 218 kts 206°
2026-04-22 11:01 29.65763 34.96717 6036 ft 219 kts 206°
2026-04-22 11:01 29.64388 34.95954 6034 ft 219 kts 207°
2026-04-22 11:01 29.63013 34.95189 6035 ft 220 kts 207°
2026-04-22 11:02 29.61636 34.94420 6033 ft 220 kts 207°
2026-04-22 11:02 29.60245 34.93642 5715 ft 228 kts 207°
2026-04-22 11:02 29.58771 34.92821 5112 ft 243 kts 207°
2026-04-22 11:02 29.57199 34.91946 4454 ft 258 kts 207°
2026-04-22 11:03 29.55555 34.91029 4038 ft 262 kts 207°
2026-04-22 11:03 29.53955 34.90142 3821 ft 255 kts 205°
2026-04-22 11:03 29.52245 34.89724 3492 ft 253 kts 173°
2026-04-22 11:03 29.50696 34.90553 3307 ft 243 kts 131°
2026-04-22 11:04 29.49982 34.92178 3316 ft 220 kts 94°
2026-04-22 11:04 29.50146 34.93810 3317 ft 197 kts 63°
2026-04-22 11:04 29.50930 34.95025 3346 ft 183 kts 36°
2026-04-22 11:04 29.51998 34.95627 3341 ft 162 kts 12°
2026-04-22 11:05 29.53041 34.95916 3327 ft 147 kts 11°
2026-04-22 11:05 29.54003 34.96183 3287 ft 141 kts 12°
2026-04-22 11:05 29.54949 34.96447 3156 ft 136 kts 12°
2026-04-22 11:05 29.55850 34.96698 3015 ft 132 kts 12°
2026-04-22 11:06 29.56730 34.96942 2891 ft 132 kts 12°
2026-04-22 11:06 29.57619 34.97190 2780 ft 130 kts 12°
2026-04-22 11:06 29.58497 34.97435 2727 ft 129 kts 11°
2026-04-22 11:06 29.59377 34.97680 2605 ft 131 kts 12°
2026-04-22 11:07 29.60265 34.97928 2456 ft 131 kts 13°
2026-04-22 11:07 29.61141 34.98173 2295 ft 129 kts 11°
2026-04-22 11:07 29.61715 34.98333 2183 ft 127 kts 13°
2026-04-22 11:07 29.62577 34.98573 2006 ft 128 kts 12°
2026-04-22 11:08 29.63456 34.98819 1839 ft 130 kts 12°
2026-04-22 11:08 29.64323 34.99061 1671 ft 128 kts 11°
2026-04-22 11:08 29.65183 34.99301 1488 ft 128 kts 13°
2026-04-22 11:08 29.66052 34.99543 1326 ft 127 kts 10°
2026-04-22 11:09 29.66914 34.99784 1152 ft 127 kts 10°
2026-04-22 11:09 29.67778 35.00026 940 ft 126 kts 12°
2026-04-22 11:09 29.68636 35.00267 739 ft 125 kts 13°
2026-04-22 11:09 29.69476 35.00490 630 ft 125 kts 14°
2026-04-22 11:10 29.70323 35.00742 527 ft 128 kts 14°
2026-04-22 11:10 29.71176 35.00983 330 ft 124 kts 13°
2026-04-22 11:10 29.71953 35.01195 302 ft 91 kts 14°
2026-04-22 11:10 29.72321 35.01298 302 ft 37 kts 14°
2026-04-22 11:11 29.72564 35.01366 295 ft 35 kts 13°
2026-04-22 11:11 29.72794 35.01430 295 ft 34 kts 13°
2026-04-22 11:11 29.73027 35.01497 298 ft 33 kts 13°
2026-04-22 11:11 29.73241 35.01497 300 ft 28 kts 349°
2026-04-22 11:12 29.73367 35.01455 301 ft 11 kts 335°
2026-04-22 11:12 29.73384 35.01426 299 ft 0 kts 287°
2026-04-22 11:12 29.73386 35.01418 300 ft 5 kts 286°
2026-04-22 11:12 29.73362 35.01377 299 ft 6 kts 198°
2026-04-22 11:13 29.73326 35.01360 299 ft 5 kts 202°
2026-04-22 11:13 29.73248 35.01333 301 ft 18 kts 193°
2026-04-22 11:13 29.73139 35.01302 298 ft 15 kts 194°
2026-04-22 11:13 29.73037 35.01272 294 ft 18 kts 194°
2026-04-22 11:14 29.72920 35.01239 293 ft 15 kts 195°
2026-04-22 11:14 29.72842 35.01199 297 ft 10 kts 234°
2026-04-22 11:14 29.72841 35.01141 293 ft 6 kts 279°
2026-04-22 11:14 29.72853 35.01082 294 ft 10 kts 283°
2026-04-22 11:15 29.72863 35.01016 296 ft 6 kts 268°
2026-04-22 11:15 29.72815 35.00973 298 ft 15 kts 194°
2026-04-22 11:15 29.72748 35.00928 299 ft 8 kts 271°
2026-04-22 11:15 29.72760 35.00893 301 ft 2 kts 294°
2026-04-22 11:16 29.72770 35.00871 300 ft 8 kts 296°
2026-04-22 11:16 29.72775 35.00849 303 ft 0 kts 281°
2026-04-22 11:16 29.72776 35.00843 302 ft 1 kts 281°